Location: Chuathbaluk
(61.5726°N, 159.2454°W)
Time: 13:03:13
(UTC+00:00)

NUDT-PHONESAT - Pass Details

Date: 17 January 2021
Orbit: 480 x 498 km, 97.4° (Epoch: 01 March)

Event Time Altitude Azimuth Distance (km) Brightness Sun altitude
Rises 05:05:24 0° 196° (SSW) 2,566 ? -20.3°
Reaches altitude 10° 05:07:44 10° 210° (SSW) 1,693 ? -20.5°
Maximum altitude 05:10:47 25° 267° (W) 1,043 ? -20.9°
Drops below altitude 10° 05:13:53 10° 325° (NW) 1,714 ? -21.3°
Sets 05:16:16 0° 339° (NNW) 2,606 ? -21.6°
